[[{"header":{"parameterUnit":"m.s-1","parameterCategory":1,"la1":30.2991,"la2":30.254,"lo1":-89.0895,"lo2":-89.0444,"dy":0.0017,"dx":0.0017,"nx":28,"ny":28,"refTime":"2025-02-26T09:00:00:Z","depth":0,"parameterNumber":2,"parameterNumberName":"U-component_of_WINDS"},"data":[0,0,0,0,0,0,0,0,0,0,0,0,0,0,0,0,0,0,0,0,0,0,0,0,0,0,0,0,0,0,0,0,0,0,0,0,0,0,0,0,0,0,0,0,0,0,0,0,0,0,0,0,0,0,0,0,0,0,1.9557,1.9556,0,1.9529,1.9529,1.9529,1.9536,1.9537,1.9538,1.9538,1.951,1.9508,1.9507,0,0,0,0,0,0,0,0,0,0,0,0,0,1.9617,1.9616,1.9557,1.9556,1.9556,1.9529,1.9529,1.9529,1.9536,1.9537,1.9538,1.9538,1.951,1.9509,1.9507,0,0,0,0,0,0,0,0,0,0,0,0,0,1.959,1.9615,1.9557,1.9557,1.9556,1.9529,1.9529,1.9528,1.9536,1.9537,1.9538,1.9539,1.9511,1.9509,1.9507,1.9478,0,0,1.9501,1.95,0,0,0,0,0,0,0,0,1.9592,1.9588,1.9557,1.9557,1.9556,1.9537,1.954,1.9512,1.9536,1.9544,1.9538,1.9539,1.9518,1.9516,1.9509,1.9477,1.9476,1.9501,1.95,1.9499,1.9498,0,0,0,0,0,0,0,1.9593,1.9589,1.9546,1.9557,1.9556,1.9558,1.9555,1.9534,1.9527,1.9543,1.9544,1.954,1.9518,1.951,1.9508,1.9475,1.9501,1.9499,1.9498,1.9497,1.9421,1.942,0,0,0,0,0,0,1.9595,1.9591,1.9547,1.9545,1.9576,1.9557,1.9553,1.9542,1.9527,1.9525,1.954,1.9541,1.9513,1.951,1.9507,1.9474,1.9499,1.9497,1.9496,1.9422,1.9421,1.942,0,0,0,0,0,0,1.9597,1.9591,1.9548,1.9568,1.9563,1.9555,1.9542,1.9541,1.9534,1.9524,1.9523,1.9533,1.9514,1.951,1.9486,1.9473,1.9496,1.9494,1.9423,1.9421,1.942,1.9407,0,0,0,0,0,0,1.9598,1.9592,1.9581,1.9568,1.9561,1.9527,1.9541,1.954,1.9531,1.9532,1.9518,1.9516,1.9514,1.9489,1.9484,1.9471,1.9493,1.9424,1.9422,1.9421,1.9408,1.9405,1.9403,0,0,0,0,0,1.9601,1.9577,1.958,1.9575,1.9547,1.9526,1.9522,1.952,1.9529,1.9518,1.9513,1.9517,1.9475,1.9486,1.9481,1.9467,1.9425,1.9423,1.9421,1.941,1.9406,1.9403,0,0,0,0,0,0,1.9588,1.9576,1.9578,1.955,1.9539,1.9527,1.9513,1.9516,1.9502,1.9504,1.9502,1.9499,1.9475,1.9468,1.9481,1.944,1.9451,1.9448,1.9445,1.9441,1.9438,1.9441,1.9491,0,0,0,0,0,1.9582,1.9566,1.9556,1.9532,1.9527,1.9521,1.9511,1.9511,1.95,1.9495,1.9487,1.9476,1.946,1.945,1.9435,1.9407,1.9405,1.9395,1.9393,1.939,1.9388,1.9375,1.9371,1.9413,1.9413,1.9413,0,0,1.957,1.9561,1.9551,1.9529,1.9521,1.9505,1.9517,1.9499,1.9487,1.9492,1.947,1.9463,1.9451,1.9425,1.9414,1.9419,1.9376,1.9388,1.9386,1.9385,1.9372,1.9368,1.9365,1.9412,1.9412,1.9412,0,0,1.9539,1.953,1.951,1.9502,1.9489,1.9486,1.9481,1.9469,1.9466,1.9443,1.9447,1.9433,1.9406,1.9398,1.939,1.9358,1.9362,1.9353,1.9338,1.9325,1.9322,1.9319,1.9309,1.9305,1.935,1.935,1.935,0,1.9525,1.9501,1.95,1.9482,1.9473,1.9478,1.9459,1.945,1.9433,1.9427,1.9434,1.9401,1.9393,1.9366,1.9359,1.9352,1.9347,1.9355,1.9322,1.9319,1.9316,1.9307,1.9303,1.9349,1.935,1.935,1.935,0,1.9485,1.9469,1.9454,1.9439,1.9428,1.941,1.9406,1.9396,1.9397,1.9393,1.9371,1.9361,1.9345,1.9339,1.9339,1.9313,1.9317,1.9323,1.9335,1.9312,1.9303,1.9299,1.9348,1.9348,1.9349,1.9349,0,0,1.9446,1.9431,1.9426,1.942,1.9407,1.9394,1.9376,1.9361,1.9353,1.9341,1.9327,1.9305,1.9311,1.9302,1.9302,1.929,1.9268,1.9297,1.9297,1.9293,1.924,1.9237,1.9232,1.927,1.9269,1.9269,1.9242,0,1.9415,1.9384,1.9384,1.9355,1.9341,1.9346,1.9331,1.9322,1.9318,1.9305,1.9301,1.9286,1.9294,1.9289,1.9278,1.9273,1.9257,1.9274,1.9258,1.9257,1.9262,1.9228,1.9224,1.9199,1.9238,1.9237,1.9237,0,1.9375,1.9364,1.9335,1.9326,1.932,1.9306,1.9293,1.9281,1.9271,1.9269,1.926,1.9261,1.9244,1.9256,1.9233,1.9245,1.9238,1.9234,1.9234,1.9233,1.9246,1.9227,1.919,1.9187,1.9231,1.9232,1.9232,0,1.9351,1.9328,1.9308,1.9303,1.9291,1.9282,1.9277,1.9268,1.926,1.9248,1.9243,1.923,1.9223,1.9212,1.9211,1.9219,1.9188,1.9199,1.9187,1.9187,1.9181,1.9181,1.9144,1.9174,1.9174,1.9174,1.9174,0,1.9318,1.93,1.9298,1.9286,1.9267,1.9266,1.9247,1.9243,1.9235,1.9223,1.9225,1.9214,1.9211,1.9199,1.9198,1.918,1.9176,1.9175,1.9175,1.9175,1.9176,1.9171,1.9173,1.9173,1.9173,1.9174,1.9174,0,1.9288,1.9286,1.9265,1.9256,1.9254,1.924,1.9233,1.9222,1.9219,1.9203,1.92,1.9195,1.9181,1.9178,1.9161,1.916,1.9139,1.914,1.9143,1.9144,1.9132,1.9133,1.9091,1.9086,1.9119,1.9118,1.9118,0,1.9268,1.9255,1.9245,1.9238,1.9232,1.9219,1.9212,1.9211,1.9202,1.9191,1.9182,1.9168,1.9158,1.9135,1.913,1.9118,1.912,1.9106,1.9118,1.9119,1.9121,1.9122,1.9122,1.9104,1.9103,1.9103,1.9103,0,1.9232,1.9232,1.9221,1.9209,1.92,1.9191,1.9182,1.9176,1.9174,1.9164,1.9151,1.9143,1.9126,1.9113,1.9101,1.9096,1.9099,1.9099,1.9096,1.9096,1.9099,1.9099,1.9138,1.91,1.91,1.91,1.9101,1.9101,1.9207,1.9197,1.9189,1.9177,1.9171,1.9163,1.9153,1.9149,1.9138,1.9125,1.9125,1.9111,1.9102,1.9087,1.9081,1.907,1.9074,1.9069,1.9068,1.9067,1.9067,1.91,1.9067,1.9067,1.9067,1.9067,1.9067,0,1.9173,1.9169,1.9158,1.9147,1.9137,1.9142,1.9133,1.9125,1.9112,1.9104,1.9094,1.9079,1.9067,1.9062,1.905,1.9042,1.9043,1.9039,1.904,1.9039,1.9062,1.9067,1.9039,1.9039,1.9039,1.9039,1.9039,1.9039,1.9155,1.9138,1.9137,1.9117,1.9113,1.9099,1.9094,1.9087,1.9081,1.9065,1.9055,1.9052,1.9046,1.9034,1.9023,1.9022,1.9018,1.9013,1.9013,1.9035,1.9038,1.904,1.9045,1.9012,1.9012,1.8991,1.8991,1.899]},{"header":{"parameterUnit":"m.s-1","parameterCategory":1,"la1":30.2991,"la2":30.254,"lo1":-89.0895,"lo2":-89.0444,"dy":0.0017,"dx":0.0017,"nx":28,"ny":28,"refTime":"2025-02-26T09:00:00:Z","depth":0,"parameterNumber":3,"parameterNumberName":"V-component_of_WINDS"},"data":[0,0,0,0,0,0,0,0,0,0,0,0,0,0,0,0,0,0,0,0,0,0,0,0,0,0,0,0,0,0,0,0,0,0,0,0,0,0,0,0,0,0,0,0,0,0,0,0,0,0,0,0,0,0,0,0,0,0,1.6668,1.6668,0,1.671,1.671,1.6711,1.6699,1.6699,1.6698,1.6697,1.6739,1.6741,1.6743,0,0,0,0,0,0,0,0,0,0,0,0,0,1.6574,1.6575,1.6667,1.6668,1.6669,1.671,1.671,1.6711,1.67,1.6699,1.6698,1.6697,1.6738,1.674,1.6743,0,0,0,0,0,0,0,0,0,0,0,0,0,1.6615,1.6576,1.6667,1.6668,1.6668,1.671,1.671,1.6711,1.67,1.6699,1.6697,1.6696,1.6737,1.674,1.6743,1.6786,0,0,1.6752,1.6753,0,0,0,0,0,0,0,0,1.6613,1.6619,1.6667,1.6668,1.6669,1.6698,1.6693,1.6736,1.67,1.6688,1.6697,1.6695,1.6726,1.673,1.6741,1.6788,1.679,1.6752,1.6754,1.6755,1.6756,0,0,0,0,0,0,0,1.661,1.6617,1.6684,1.6668,1.6669,1.6665,1.6669,1.6701,1.6714,1.6689,1.6688,1.6693,1.6726,1.6738,1.6742,1.6791,1.6752,1.6755,1.6756,1.6757,1.6872,1.6873,0,0,0,0,0,0,1.6607,1.6614,1.6683,1.6686,1.6637,1.6668,1.6673,1.669,1.6713,1.6716,1.6694,1.6693,1.6734,1.6738,1.6743,1.6792,1.6755,1.6758,1.6759,1.6871,1.6872,1.6874,0,0,0,0,0,0,1.6605,1.6613,1.6681,1.665,1.6658,1.6671,1.669,1.6691,1.6703,1.6717,1.6719,1.6704,1.6733,1.6739,1.6775,1.6794,1.6759,1.6762,1.6869,1.6871,1.6873,1.6893,0,0,0,0,0,0,1.6602,1.6612,1.663,1.665,1.666,1.6713,1.6691,1.6693,1.6708,1.6706,1.6727,1.6729,1.6732,1.6771,1.6778,1.6797,1.6764,1.6867,1.687,1.6872,1.6891,1.6896,1.69,0,0,0,0,0,1.6599,1.6634,1.6631,1.6639,1.6682,1.6715,1.672,1.6723,1.671,1.6726,1.6735,1.6729,1.6791,1.6774,1.6782,1.6803,1.6866,1.6869,1.6872,1.6889,1.6895,1.69,0,0,0,0,0,0,1.6616,1.6637,1.6633,1.6677,1.6694,1.6713,1.6734,1.673,1.6751,1.6748,1.6751,1.6755,1.6792,1.6801,1.6782,1.6844,1.6826,1.6831,1.6836,1.6842,1.6846,1.6843,1.6766,0,0,0,0,0,1.6625,1.665,1.6667,1.6703,1.6712,1.6722,1.6736,1.6737,1.6755,1.6762,1.6773,1.679,1.6813,1.6828,1.6851,1.6893,1.6895,1.691,1.6915,1.6918,1.6922,1.6942,1.6948,1.6883,1.6883,1.6883,0,0,1.6643,1.6658,1.6674,1.6707,1.6721,1.6745,1.6728,1.6756,1.6774,1.6766,1.68,1.6809,1.6828,1.6866,1.6883,1.6875,1.694,1.6922,1.6925,1.6926,1.6945,1.6951,1.6957,1.6885,1.6885,1.6885,0,0,1.6689,1.6704,1.6734,1.6747,1.6768,1.6773,1.6781,1.68,1.6805,1.684,1.6833,1.6854,1.6895,1.6908,1.692,1.6968,1.6961,1.6975,1.6998,1.7017,1.7022,1.7026,1.7041,1.7047,1.6979,1.6979,1.6979,0,1.6709,1.6747,1.675,1.6778,1.6791,1.6785,1.6815,1.6828,1.6854,1.6863,1.6854,1.6903,1.6915,1.6955,1.6966,1.6977,1.6984,1.6972,1.7021,1.7026,1.703,1.7044,1.7049,1.698,1.698,1.698,1.698,0,1.6769,1.6795,1.6817,1.6842,1.6859,1.6887,1.6894,1.691,1.6909,1.6915,1.6948,1.6963,1.6987,1.6996,1.6996,1.7035,1.7029,1.7021,1.7002,1.7037,1.705,1.7056,1.6982,1.6982,1.6981,1.6981,0,0,1.6827,1.6852,1.686,1.687,1.6891,1.6911,1.6938,1.6961,1.6974,1.6992,1.7014,1.7047,1.7038,1.7052,1.7053,1.707,1.7104,1.7059,1.7059,1.7064,1.7145,1.715,1.7156,1.71,1.7101,1.7102,1.7142,0,1.6872,1.6921,1.6923,1.6967,1.6989,1.6983,1.7007,1.7021,1.7027,1.7047,1.7053,1.7076,1.7064,1.7072,1.7089,1.7096,1.7119,1.7093,1.7118,1.7119,1.7112,1.7163,1.7169,1.7207,1.7148,1.7149,1.7149,0,1.6932,1.6951,1.6996,1.7012,1.7021,1.7043,1.7063,1.7082,1.7098,1.7101,1.7115,1.7113,1.7139,1.7121,1.7156,1.7138,1.7148,1.7153,1.7154,1.7155,1.7135,1.7163,1.7219,1.7224,1.7158,1.7157,1.7156,0,1.6966,1.7003,1.7035,1.7044,1.7064,1.7078,1.7087,1.7101,1.7114,1.7132,1.7139,1.716,1.7171,1.7186,1.7189,1.7176,1.7223,1.7206,1.7224,1.7224,1.7233,1.7232,1.7289,1.7243,1.7243,1.7243,1.7243,0,1.7016,1.7043,1.705,1.7069,1.7099,1.7101,1.713,1.7138,1.715,1.7169,1.7166,1.7184,1.7187,1.7206,1.7208,1.7235,1.724,1.7242,1.7242,1.7242,1.7241,1.7247,1.7244,1.7245,1.7244,1.7244,1.7244,0,1.7058,1.7065,1.7098,1.7113,1.7117,1.7138,1.7151,1.7168,1.7174,1.7198,1.7204,1.7212,1.7233,1.7237,1.7263,1.7264,1.7295,1.7294,1.729,1.7289,1.7306,1.7304,1.7367,1.7375,1.7326,1.7327,1.7327,0,1.7089,1.7109,1.7126,1.7139,1.7148,1.7169,1.7181,1.7184,1.7198,1.7216,1.723,1.7251,1.7268,1.7301,1.7309,1.7327,1.7325,1.7346,1.7328,1.7325,1.7322,1.732,1.7321,1.7349,1.7349,1.735,1.735,0,1.7141,1.7142,1.7161,1.718,1.7195,1.7211,1.7225,1.7236,1.724,1.7255,1.7276,1.7289,1.7314,1.7334,1.7352,1.736,1.7355,1.7356,1.7361,1.7359,1.7355,1.7355,1.7297,1.7354,1.7354,1.7353,1.7353,1.7353,1.7176,1.7193,1.7207,1.7228,1.7239,1.7252,1.7268,1.7275,1.7293,1.7314,1.7314,1.7337,1.735,1.7374,1.7383,1.7399,1.7393,1.74,1.7402,1.7403,1.7404,1.7354,1.7403,1.7403,1.7403,1.7403,1.7403,0,1.7226,1.7234,1.7253,1.7273,1.7288,1.7283,1.7298,1.7311,1.7331,1.7344,1.736,1.7383,1.7402,1.7411,1.7429,1.744,1.7438,1.7445,1.7443,1.7444,1.741,1.7403,1.7446,1.7446,1.7446,1.7446,1.7446,1.7446,1.7253,1.7281,1.7284,1.7316,1.7324,1.7346,1.7355,1.7367,1.7376,1.7403,1.7418,1.7424,1.7434,1.7452,1.7469,1.747,1.7476,1.7483,1.7484,1.7451,1.7447,1.7443,1.7436,1.7485,1.7485,1.7517,1.7517,1.7517]}]]